Time,TemperatureF,DewpointF,PressureIn,WindDirection,WindDirectionDegrees,WindSpeedMPH,WindSpeedGustMPH,Humidity,HourlyPrecipIn,Conditions,Clouds,dailyrainin,SoftwareType,DateUTC
2013-01-16 00:03:00,35.0,23.0,-100.00,NNE,30,4.0,6.0,62,-99.99,,,-99.99,,2013-01-16 05:03:00,
2013-01-16 00:12:00,34.0,23.0,-100.00,NE,50,2.0,4.0,64,-99.99,,,-99.99,,2013-01-16 05:12:00,
2013-01-16 00:23:00,34.0,23.0,-100.00,NE,50,2.0,4.0,64,-99.99,,,-99.99,,2013-01-16 05:23:00,
2013-01-16 00:33:00,34.0,24.0,-100.00,NNE,25,2.0,6.0,68,-99.99,,,-99.99,,2013-01-16 05:33:00,
2013-01-16 00:42:00,34.0,26.0,-100.00,NNE,30,2.0,5.0,72,-99.99,,,-99.99,,2013-01-16 05:42:00,
2013-01-16 00:53:00,34.0,26.0,-100.00,NNE,30,2.0,5.0,72,-99.99,,,-99.99,,2013-01-16 05:53:00,
2013-01-16 01:12:00,33.0,27.0,-100.00,NE,45,3.0,9.0,80,-99.99,,,-99.99,,2013-01-16 06:12:00,
2013-01-16 01:22:00,33.0,27.0,-100.00,NE,45,3.0,9.0,80,-99.99,,,-99.99,,2013-01-16 06:22:00,
2013-01-16 01:33:00,33.0,28.0,-100.00,NNE,20,5.0,9.0,83,-99.99,,,-99.99,,2013-01-16 06:33:00,
2013-01-16 01:43:00,32.0,28.0,-100.00,NNE,15,6.0,11.0,86,-99.99,,,-99.99,,2013-01-16 06:43:00,
2013-01-16 01:52:00,32.0,28.0,-100.00,NNE,15,6.0,11.0,86,-99.99,,,-99.99,,2013-01-16 06:52:00,
2013-01-16 02:02:00,32.0,28.0,-100.00,NNE,30,6.0,11.0,87,-99.99,,,-99.99,,2013-01-16 07:02:00,
2013-01-16 02:12:00,32.0,29.0,-100.00,NNE,30,3.0,13.0,88,-99.99,,,-99.99,,2013-01-16 07:12:00,
2013-01-16 02:22:00,32.0,29.0,-100.00,NNE,30,3.0,13.0,88,-99.99,,,-99.99,,2013-01-16 07:22:00,
2013-01-16 02:33:00,31.0,28.0,-100.00,NE,35,5.0,12.0,88,-99.99,,,-99.99,,2013-01-16 07:33:00,
2013-01-16 02:42:00,32.0,29.0,-100.00,NE,35,3.0,9.0,89,-99.99,,,-99.99,,2013-01-16 07:42:00,
2013-01-16 02:52:00,32.0,29.0,-100.00,NE,35,3.0,9.0,89,-99.99,,,-99.99,,2013-01-16 07:52:00,
2013-01-16 03:03:00,32.0,29.0,-100.00,North,10,4.0,10.0,90,-99.99,,,-99.99,,2013-01-16 08:03:00,
2013-01-16 03:12:00,31.0,29.0,-100.00,NNE,25,5.0,11.0,90,-99.99,,,-99.99,,2013-01-16 08:12:00,
2013-01-16 03:23:00,31.0,29.0,-100.00,NNE,25,5.0,11.0,90,-99.99,,,-99.99,,2013-01-16 08:23:00,
2013-01-16 03:32:00,31.0,29.0,-100.00,NNE,20,4.0,9.0,90,-99.99,,,-99.99,,2013-01-16 08:32:00,
2013-01-16 03:42:00,31.0,29.0,-100.00,ENE,65,5.0,13.0,91,-99.99,,,-99.99,,2013-01-16 08:42:00,
2013-01-16 03:52:00,31.0,29.0,-100.00,ENE,65,5.0,13.0,91,-99.99,,,-99.99,,2013-01-16 08:52:00,
2013-01-16 04:02:00,31.0,29.0,-100.00,NE,45,5.0,11.0,91,-99.99,,,-99.99,,2013-01-16 09:02:00,
2013-01-16 04:12:00,31.0,29.0,-100.00,NE,50,4.0,12.0,91,-99.99,,,-99.99,,2013-01-16 09:12:00,
2013-01-16 04:22:00,31.0,29.0,-100.00,NE,50,4.0,12.0,91,-99.99,,,-99.99,,2013-01-16 09:22:00,
2013-01-16 04:33:00,31.0,29.0,-100.00,NE,40,3.0,9.0,91,-99.99,,,-99.99,,2013-01-16 09:33:00,
2013-01-16 04:43:00,31.0,29.0,-100.00,NE,45,4.0,8.0,91,-99.99,,,-99.99,,2013-01-16 09:43:00,
2013-01-16 04:53:00,31.0,29.0,-100.00,NE,45,4.0,8.0,91,-99.99,,,-99.99,,2013-01-16 09:53:00,
2013-01-16 05:03:00,31.0,29.0,-100.00,NE,45,3.0,7.0,91,-99.99,,,-99.99,,2013-01-16 10:03:00,
2013-01-16 05:12:00,31.0,29.0,-100.00,NE,45,3.0,5.0,91,-99.99,,,-99.99,,2013-01-16 10:12:00,
2013-01-16 05:22:00,31.0,29.0,-100.00,NE,45,3.0,5.0,91,-99.99,,,-99.99,,2013-01-16 10:22:00,
2013-01-16 05:32:00,31.0,29.0,-100.00,NE,45,2.0,5.0,91,-99.99,,,-99.99,,2013-01-16 10:32:00,
2013-01-16 05:43:00,31.0,29.0,-100.00,NE,45,3.0,6.0,91,-99.99,,,-99.99,,2013-01-16 10:43:00,
2013-01-16 05:52:00,31.0,29.0,-100.00,NE,45,3.0,6.0,91,-99.99,,,-99.99,,2013-01-16 10:52:00,
2013-01-16 06:12:00,31.0,28.0,-100.00,NE,45,1.0,6.0,91,-99.99,,,-99.99,,2013-01-16 11:12:00,
2013-01-16 06:23:00,31.0,28.0,-100.00,NE,45,1.0,6.0,91,-99.99,,,-99.99,,2013-01-16 11:23:00,
2013-01-16 06:33:00,31.0,28.0,-100.00,NE,45,1.0,3.0,91,-99.99,,,-99.99,,2013-01-16 11:33:00,
2013-01-16 06:43:00,31.0,28.0,-100.00,NE,45,1.0,3.0,91,-99.99,,,-99.99,,2013-01-16 11:43:00,
2013-01-16 06:52:00,31.0,28.0,-100.00,NE,45,1.0,3.0,91,-99.99,,,-99.99,,2013-01-16 11:52:00,
2013-01-16 07:03:00,31.0,29.0,-100.00,NE,45,1.0,4.0,91,-99.99,,,-99.99,,2013-01-16 12:03:00,
2013-01-16 07:13:00,31.0,29.0,-100.00,NE,45,1.0,3.0,91,-99.99,,,-99.99,,2013-01-16 12:13:00,
2013-01-16 07:22:00,31.0,29.0,-100.00,NE,45,1.0,3.0,91,-99.99,,,-99.99,,2013-01-16 12:22:00,
2013-01-16 07:33:00,31.0,29.0,-100.00,NE,45,2.0,4.0,92,-99.99,,,-99.99,,2013-01-16 12:33:00,
2013-01-16 07:43:00,31.0,29.0,-100.00,NE,45,1.0,3.0,92,-99.99,,,-99.99,,2013-01-16 12:43:00,
2013-01-16 07:53:00,31.0,29.0,-100.00,NE,45,1.0,3.0,92,-99.99,,,-99.99,,2013-01-16 12:53:00,
2013-01-16 08:03:00,31.0,29.0,-100.00,NE,45,2.0,4.0,92,-99.99,,,-99.99,,2013-01-16 13:03:00,
2013-01-16 08:13:00,31.0,29.0,-100.00,NE,45,2.0,3.0,92,-99.99,,,-99.99,,2013-01-16 13:13:00,
2013-01-16 08:23:00,31.0,29.0,-100.00,NE,45,2.0,3.0,92,-99.99,,,-99.99,,2013-01-16 13:23:00,
2013-01-16 08:33:00,31.0,29.0,-100.00,NE,45,0.0,0.0,92,-99.99,,,-99.99,,2013-01-16 13:33:00,
2013-01-16 08:43:00,31.0,29.0,-100.00,NE,45,0.0,0.0,92,-99.99,,,-99.99,,2013-01-16 13:43:00,
2013-01-16 08:53:00,31.0,29.0,-100.00,NE,45,0.0,0.0,92,-99.99,,,-99.99,,2013-01-16 13:53:00,
2013-01-16 09:03:00,32.0,30.0,-100.00,NE,45,0.0,0.0,92,-99.99,,,-99.99,,2013-01-16 14:03:00,
2013-01-16 09:12:00,32.0,30.0,-100.00,NE,45,0.0,0.0,92,-99.99,,,-99.99,,2013-01-16 14:12:00,
2013-01-16 09:23:00,32.0,30.0,-100.00,NE,45,0.0,0.0,92,-99.99,,,-99.99,,2013-01-16 14:23:00,
2013-01-16 09:33:00,32.0,30.0,-100.00,NE,45,0.0,0.0,92,-99.99,,,-99.99,,2013-01-16 14:33:00,
2013-01-16 09:43:00,32.0,30.0,-100.00,NE,45,0.0,0.0,92,-99.99,,,-99.99,,2013-01-16 14:43:00,
2013-01-16 09:53:00,32.0,30.0,-100.00,NE,45,0.0,0.0,92,-99.99,,,-99.99,,2013-01-16 14:53:00,
2013-01-16 10:00:00,32.0,30.0,-100.00,NE,45,0.0,0.0,92,-99.99,,,-99.99,,2013-01-16 15:00:00,
2013-01-16 10:03:00,32.0,30.0,-100.00,NE,45,0.0,0.0,92,-99.99,,,-99.99,,2013-01-16 15:03:00,
2013-01-16 10:12:00,32.0,30.0,-100.00,NE,45,0.0,0.0,92,-99.99,,,-99.99,,2013-01-16 15:12:00,
2013-01-16 10:23:00,32.0,30.0,-100.00,NE,45,0.0,0.0,92,-99.99,,,-99.99,,2013-01-16 15:23:00,
2013-01-16 10:33:00,32.0,30.0,-100.00,NE,45,0.0,0.0,92,-99.99,,,-99.99,,2013-01-16 15:33:00,
2013-01-16 10:43:00,32.0,30.0,-100.00,NE,45,0.0,0.0,92,-99.99,,,-99.99,,2013-01-16 15:43:00,
2013-01-16 10:53:00,32.0,30.0,-100.00,NE,45,0.0,0.0,92,-99.99,,,-99.99,,2013-01-16 15:53:00,
2013-01-16 11:00:00,32.0,30.0,-100.00,NE,45,0.0,0.0,92,-99.99,,,-99.99,,2013-01-16 16:00:00,
2013-01-16 11:12:00,32.0,30.0,-100.00,NE,45,0.0,0.0,92,-99.99,,,-99.99,,2013-01-16 16:12:00,
2013-01-16 11:23:00,32.0,30.0,-100.00,NE,45,0.0,0.0,92,-99.99,,,-99.99,,2013-01-16 16:23:00,
2013-01-16 11:33:00,32.0,30.0,-100.00,NE,45,0.0,0.0,92,-99.99,,,-99.99,,2013-01-16 16:33:00,
2013-01-16 11:43:00,32.0,30.0,-100.00,NE,45,0.0,0.0,92,-99.99,,,-99.99,,2013-01-16 16:43:00,
2013-01-16 11:53:00,32.0,30.0,-100.00,NE,45,0.0,0.0,92,-99.99,,,-99.99,,2013-01-16 16:53:00,
2013-01-16 12:12:00,32.0,30.0,-100.00,NE,45,0.0,0.0,92,-99.99,,,-99.99,,2013-01-16 17:12:00,
2013-01-16 12:23:00,32.0,30.0,-100.00,NE,45,0.0,0.0,92,-99.99,,,-99.99,,2013-01-16 17:23:00,
2013-01-16 12:33:00,32.0,30.0,-100.00,NE,45,0.0,0.0,92,-99.99,,,-99.99,,2013-01-16 17:33:00,
2013-01-16 12:44:00,32.0,30.0,-100.00,NE,45,0.0,0.0,92,-99.99,,,-99.99,,2013-01-16 17:44:00,
2013-01-16 12:53:00,32.0,30.0,-100.00,NE,45,0.0,0.0,92,-99.99,,,-99.99,,2013-01-16 17:53:00,
2013-01-16 13:03:00,32.0,30.0,-100.00,NE,45,0.0,0.0,92,-99.99,,,-99.99,,2013-01-16 18:03:00,
2013-01-16 13:13:00,32.0,30.0,-100.00,NE,45,0.0,0.0,92,-99.99,,,-99.99,,2013-01-16 18:13:00,
2013-01-16 13:23:00,32.0,30.0,-100.00,NE,45,0.0,0.0,92,-99.99,,,-99.99,,2013-01-16 18:23:00,
2013-01-16 13:33:00,32.0,30.0,-100.00,NE,45,0.0,0.0,92,-99.99,,,-99.99,,2013-01-16 18:33:00,
2013-01-16 13:43:00,32.0,30.0,-100.00,NE,45,0.0,0.0,92,-99.99,,,-99.99,,2013-01-16 18:43:00,
2013-01-16 13:53:00,32.0,30.0,-100.00,NE,45,0.0,0.0,92,-99.99,,,-99.99,,2013-01-16 18:53:00,
2013-01-16 14:03:00,33.0,30.0,-100.00,NE,45,0.0,0.0,92,-99.99,,,-99.99,,2013-01-16 19:03:00,
2013-01-16 14:13:00,33.0,30.0,-100.00,NE,45,0.0,0.0,92,-99.99,,,-99.99,,2013-01-16 19:13:00,
2013-01-16 14:23:00,33.0,30.0,-100.00,NE,45,0.0,0.0,92,-99.99,,,-99.99,,2013-01-16 19:23:00,
2013-01-16 14:33:00,33.0,30.0,-100.00,NE,45,0.0,0.0,92,-99.99,,,-99.99,,2013-01-16 19:33:00,
2013-01-16 14:43:00,33.0,30.0,-100.00,NNW,335,0.0,0.0,92,-99.99,,,-99.99,,2013-01-16 19:43:00,
2013-01-16 14:53:00,33.0,30.0,-100.00,NNW,335,0.0,0.0,92,-99.99,,,-99.99,,2013-01-16 19:53:00,
2013-01-16 15:03:00,33.0,30.0,-100.00,NW,305,0.0,0.0,92,-99.99,,,-99.99,,2013-01-16 20:03:00,
2013-01-16 15:12:00,33.0,30.0,-100.00,SE,140,0.0,0.0,92,-99.99,,,-99.99,,2013-01-16 20:12:00,
2013-01-16 15:23:00,33.0,30.0,-100.00,SE,140,0.0,0.0,92,-99.99,,,-99.99,,2013-01-16 20:23:00,
2013-01-16 15:33:00,33.0,31.0,-100.00,NW,325,0.0,0.0,92,-99.99,,,-99.99,,2013-01-16 20:33:00,
2013-01-16 15:43:00,33.0,31.0,-100.00,NNW,340,0.0,0.0,92,-99.99,,,-99.99,,2013-01-16 20:43:00,
2013-01-16 15:53:00,33.0,31.0,-100.00,NNW,340,0.0,0.0,92,-99.99,,,-99.99,,2013-01-16 20:53:00,
2013-01-16 16:03:00,33.0,31.0,-100.00,NW,305,0.0,0.0,92,-99.99,,,-99.99,,2013-01-16 21:03:00,
2013-01-16 16:12:00,33.0,31.0,-100.00,WSW,240,0.0,0.0,92,-99.99,,,-99.99,,2013-01-16 21:12:00,
2013-01-16 16:23:00,33.0,31.0,-100.00,WSW,240,0.0,0.0,92,-99.99,,,-99.99,,2013-01-16 21:23:00,
2013-01-16 16:33:00,33.0,31.0,-100.00,WNW,290,0.0,0.0,92,-99.99,,,-99.99,,2013-01-16 21:33:00,
2013-01-16 16:43:00,33.0,31.0,-100.00,WSW,255,0.0,0.0,92,-99.99,,,-99.99,,2013-01-16 21:43:00,
2013-01-16 16:53:00,33.0,31.0,-100.00,WSW,255,0.0,0.0,92,-99.99,,,-99.99,,2013-01-16 21:53:00,
2013-01-16 17:03:00,33.0,31.0,-100.00,West,270,0.0,0.0,92,-99.99,,,-99.99,,2013-01-16 22:03:00,
2013-01-16 17:12:00,33.0,31.0,-100.00,South,180,0.0,0.0,92,-99.99,,,-99.99,,2013-01-16 22:12:00,
2013-01-16 17:23:00,33.0,31.0,-100.00,South,180,0.0,0.0,92,-99.99,,,-99.99,,2013-01-16 22:23:00,
2013-01-16 17:33:00,33.0,31.0,-100.00,WNW,300,0.0,0.0,92,-99.99,,,-99.99,,2013-01-16 22:33:00,
2013-01-16 17:43:00,33.0,31.0,-100.00,SSW,195,0.0,0.0,92,-99.99,,,-99.99,,2013-01-16 22:43:00,
2013-01-16 17:53:00,33.0,31.0,-100.00,SSW,195,0.0,0.0,92,-99.99,,,-99.99,,2013-01-16 22:53:00,
2013-01-16 18:03:00,33.0,31.0,-100.00,SSW,205,0.0,0.0,92,-99.99,,,-99.99,,2013-01-16 23:03:00,
2013-01-16 18:12:00,33.0,31.0,-100.00,SSW,205,0.0,0.0,92,-99.99,,,-99.99,,2013-01-16 23:12:00,
2013-01-16 18:33:00,33.0,31.0,-100.00,West,260,0.0,0.0,92,-99.99,,,-99.99,,2013-01-16 23:33:00,
2013-01-16 18:43:00,33.0,31.0,-100.00,SW,225,0.0,0.0,92,-99.99,,,-99.99,,2013-01-16 23:43:00,
2013-01-16 18:53:00,33.0,31.0,-100.00,SW,225,0.0,0.0,92,-99.99,,,-99.99,,2013-01-16 23:53:00,
2013-01-16 19:03:00,33.0,31.0,-100.00,SW,220,0.0,0.0,92,-99.99,,,-99.99,,2013-01-17 00:03:00,
2013-01-16 19:12:00,33.0,31.0,-100.00,SW,235,0.0,0.0,92,-99.99,,,-99.99,,2013-01-17 00:12:00,
2013-01-16 19:22:00,33.0,31.0,-100.00,SW,235,0.0,0.0,92,-99.99,,,-99.99,,2013-01-17 00:22:00,
2013-01-16 19:33:00,33.0,31.0,-100.00,SW,220,0.0,0.0,92,-99.99,,,-99.99,,2013-01-17 00:33:00,
2013-01-16 19:42:00,33.0,31.0,-100.00,WSW,245,0.0,0.0,92,-99.99,,,-99.99,,2013-01-17 00:42:00,
2013-01-16 19:53:00,33.0,31.0,-100.00,WSW,245,0.0,0.0,92,-99.99,,,-99.99,,2013-01-17 00:53:00,
2013-01-16 20:02:00,33.0,31.0,-100.00,SW,235,0.0,0.0,92,-99.99,,,-99.99,,2013-01-17 01:02:00,
2013-01-16 20:12:00,33.0,31.0,-100.00,SW,225,0.0,0.0,92,-99.99,,,-99.99,,2013-01-17 01:12:00,
2013-01-16 20:22:00,33.0,31.0,-100.00,SW,225,0.0,0.0,92,-99.99,,,-99.99,,2013-01-17 01:22:00,
2013-01-16 20:33:00,33.0,31.0,-100.00,WSW,255,0.0,0.0,92,-99.99,,,-99.99,,2013-01-17 01:33:00,
2013-01-16 20:43:00,33.0,31.0,-100.00,SW,235,0.0,0.0,92,-99.99,,,-99.99,,2013-01-17 01:43:00,
2013-01-16 20:53:00,33.0,31.0,-100.00,SW,235,0.0,0.0,92,-99.99,,,-99.99,,2013-01-17 01:53:00,
2013-01-16 21:02:00,33.0,31.0,-100.00,WSW,250,0.0,0.0,92,-99.99,,,-99.99,,2013-01-17 02:02:00,
2013-01-16 21:12:00,33.0,31.0,-100.00,WSW,245,0.0,0.0,92,-99.99,,,-99.99,,2013-01-17 02:12:00,
2013-01-16 21:22:00,33.0,31.0,-100.00,WSW,245,0.0,0.0,92,-99.99,,,-99.99,,2013-01-17 02:22:00,
2013-01-16 21:32:00,33.0,31.0,-100.00,WSW,255,0.0,0.0,92,-99.99,,,-99.99,,2013-01-17 02:32:00,
2013-01-16 21:43:00,33.0,31.0,-100.00,WSW,255,0.0,0.0,92,-99.99,,,-99.99,,2013-01-17 02:43:00,
2013-01-16 22:03:00,33.0,31.0,-100.00,SW,235,0.0,0.0,92,-99.99,,,-99.99,,2013-01-17 03:03:00,
2013-01-16 22:12:00,33.0,31.0,-100.00,WSW,245,0.0,0.0,92,-99.99,,,-99.99,,2013-01-17 03:12:00,
2013-01-16 22:22:00,33.0,31.0,-100.00,WSW,245,0.0,0.0,92,-99.99,,,-99.99,,2013-01-17 03:22:00,
2013-01-16 22:33:00,33.0,31.0,-100.00,SSW,195,0.0,0.0,92,-99.99,,,-99.99,,2013-01-17 03:33:00,
2013-01-16 22:43:00,33.0,31.0,-100.00,SW,235,0.0,0.0,92,-99.99,,,-99.99,,2013-01-17 03:43:00,
2013-01-16 22:53:00,33.0,31.0,-100.00,SW,235,0.0,0.0,92,-99.99,,,-99.99,,2013-01-17 03:53:00,
2013-01-16 23:02:00,33.0,31.0,-100.00,SSW,210,0.0,0.0,92,-99.99,,,-99.99,,2013-01-17 04:02:00,
2013-01-16 23:12:00,33.0,31.0,-100.00,WSW,250,0.0,0.0,92,-99.99,,,-99.99,,2013-01-17 04:12:00,
2013-01-16 23:23:00,33.0,31.0,-100.00,WSW,250,0.0,0.0,92,-99.99,,,-99.99,,2013-01-17 04:23:00,
2013-01-16 23:33:00,34.0,32.0,-100.00,SW,215,0.0,0.0,92,-99.99,,,-99.99,,2013-01-17 04:33:00,
2013-01-16 23:42:00,34.0,32.0,-100.00,SW,215,0.0,0.0,92,-99.99,,,-99.99,,2013-01-17 04:42:00,